OBJECT R (43773 NORAD) Tracking and Keplerian Element Data

This shows tracking and keplerian element data for the satellite.

Feedback or suggestion? Click here.




ElementValue
Catalog43773
NameOBJECT R
Epoch Orbit566
Epoch Day10.70865332
Epoch Year2019
RAAN84.4539
Inclination97.7594
Eccentricity0.0014774
Argument of Perigee128.0123
Mean Anonmoly232.2434
Mean Motion14.94722843
Decay Rate-1.86E-06
L11 43773U 18099R 19010.70865332 -.00000186 00000-0 -11825-4 0 9994
L22 43773 97.7594 84.4539 0014774 128.0123 232.2434 14.94722843 5661

Live tracking and technical data element details for OBJECT R (NORAD 43773). OBJECT R can be tracked NOW for your location showing map with azimuth and elevation plus other details from your city location.

Track the satellite on the map from your city or location and see movement details for azimuth, elevation, latitude, longitude, range, height, and movement on the map or in text.







IsCatalogInMostPopularTable: catalog: 43773, numindb: 17
Update: records affected: 1



GetName: 43773 OBJECT R

Hit Count: updated at: Thu, 17 Jan 2019 15:30:52 GMT